Regional Weather Roundup
Issued by NWS

Home | Current Version | Previous Version | Text Only | Print | Product List | Glossary Off
Versions: 1 2 3 4 5 6 7 8 9 10 11 12 13 14 15 16 17 18 19 20 21 22 23 24 25 26 27 28 29 30 31 32 33 34 35 36 37 38 39 40 41 42 43 44 45 46 47 48 49 50

396
ASUS44 KJAN 241410
RWRMS

MISSISSIPPI HOURLY WEATHER ROUNDUP
NATIONAL WEATHER SERVICE JACKSON MS
900 AM CDT THU APR 24 2014

NOTE: "FAIR: INDICATES FEW OR NO CLOUDS BELOW 12,000 FEET WITH NO
SIGNIFICANT WEATHER AND/OR OBSTRUCTIONS TO VISIBILITY.

MSZ001>002-007>008-010>013-018>021-025>028-034>036-241500-
NORTHWEST MISSISSIPPI

CITY           SKY/WX    TMP DP  RH WIND       PRES   REMARKS
CLARKSDALE       N/A     64  48  55 S10       29.93F
CLEVELAND      FAIR      65  53  65 S10       29.92F
GREENWOOD      PTSUNNY   67  47  48 S7        29.95R
GREENVILLE     MOSUNNY   66  54  65 S10       29.92F
GRENADA        FAIR      63  50  63 S3        29.95F
OLIVE BRANCH   PTSUNNY   63  43  48 SE9       29.94F
OXFORD         FAIR      63  41  45 S3        29.96F
TUNICA         PTSUNNY   63  46  55 SE10      29.93F
$$

MSZ003>006-009-014>017-022>024-029>033-037>039-241500-
NORTHEAST MISSISSIPPI

CITY           SKY/WX    TMP DP  RH WIND       PRES   REMARKS
BELMONT        FAIR      65  46  49 SE6       29.98S
COLUMBUS AFB   MOSUNNY   62  47  58 SE6       29.98S
CORINTH        FAIR      61  45  55 SE8       29.97S
GOLDN TRIANGLE SUNNY     61  46  59 S6        30.00S
STARKVILLE     FAIR      63  50  63 SE7       29.97S
TUPELO         SUNNY     62  47  57 SW8       29.97R
$$

MSZ040-058-241500-
CENTRAL MISSISSIPPI

CITY           SKY/WX    TMP DP  RH WIND       PRES   REMARKS
JACKSON INTL   MOSUNNY   70  58  65 CALM      29.96R
JACKSON HAWKNS SUNNY     71  59  65 CALM      29.96R
MERIDIAN KEY   PTSUNNY   65  54  67 CALM      29.97S
MERIDIAN NAS   PTSUNNY   65  50  58 VRB3      29.98S
RAYMOND        FAIR      68  64  88 CALM      29.96R
VICKSBURG      SUNNY     69  57  65 S3        29.95R
$$

MSZ059>079-241500-
SOUTH MISSISSIPPI

CITY           SKY/WX    TMP DP  RH WIND       PRES   REMARKS
BROOKHAVEN     FAIR      68  64  88 CALM      29.98S
HATTIESBURG    SUNNY     69  62  78 CALM      29.99R
MCCOMB         CLOUDY    66  63  90 CALM      29.98R FOG
NATCHEZ        CLOUDY    66  63  88 S5        29.97R
PINE BELT      SUNNY     68  61  77 CALM      29.99S
$$

MSZ080>082-241500-
COASTAL MISSISSIPPI

CITY           SKY/WX    TMP DP  RH WIND       PRES   REMARKS
BAY ST LOUIS   PTSUNNY   59  55  88 CALM      29.99R FOG
BILOXI         CLOUDY    71  68  90 VRB2      29.98R
PASCAGOULA     MOSUNNY   71  67  87 CALM      29.98S
GULFPORT       PTSUNNY   75  65  70 S5        29.98R
$$



USA.gov is the U.S. government's official web portal to all federal, state and local government web resources and services.